"Pseudo-MPEC" for A10c3KV

Created 2019 Feb 15 23:18:02 UT using Find_Orb

Click here for an explanation of pseudo-MPECs

 
 Astrometry: 
     A10c3KV  C2019 01 14N,e!@cRo7l\DTNgAstrometry(we^p^-EW[hhP[Yi0?Te_q=.cdjT05
     A10c3KV  C2019 01 14:_@Rl?/M.wXC0G-OVMhMjwj.AR'n(dtA+L3J\:23r0Dt=M*j15mwT05
     A10c3KV  C2019 01 14!/[`[Heqcw+5a)cY0m#%ls[j5y#=2xaHGsdWXS?a=xLd!RiHL$8BT05
     A10c3KV  C2019 01 14)06+1%Ot](9yEkKdF#Sn)X`KKUFvfBZP2e;ODj#\sp[ra`\a=j0GT05
     A10c3KV  C2019 01 14$FI^P[#ldH6g*/]?\x%:BbJCdNJF.wJ.b^[e*FgAgq*Kjf#o+=lGT05
     A10c3KV  C2019 01 14Xj\fjDJc/QPmZrGGvp,mbSi,?9yQqj3]41anOptZB6[:]\jTh^puT05
     A10c3KV  C2019 01 147F4t4y5)N,W.`yyA:\W*6yB-uIcji?je$TTXj],Pno6nn2bPiFAiT05
     A10c3KV  C2019 01 14(eRbP1=*i-AO76DM^l9Fw)lL5j(ERd0^L;oiy^PA4g12oI%.ok;tT05
     A10c3KV  C2019 02 059w*xIyGmx,Cste*,4Sevgh;_I5G\/:Ym8\l`OjFMd@lHVl23D*O*T08
     A10c3KV  C2019 02 05N89@RheRo)La+RA;xxNfBX;f31/o12C#KdUm)-c2Y$qe3dxaPtsET08
     A10c3KV  C2019 02 05Q[KT`icSrJp^]O/IOBg']q!1pVp(C?0NT5):$FHPqhTGwWvtD#1oT08
     A10c3KV  C2019 02 05Xf2aAGj5%j]/aVQ#(MTr14Aj0-#U8jAy1hCFG4^VO:aEqisKFk]4T08
     A10c3KV  C2019 02 06(8IS#kQ#8?aHnU/:My3REXiYDqWX%2qJ@NoqR.6mV*#@x*s1\iLQJ04
     A10c3KV  C2019 02 06`B_db4Z3@redacted;h#gx-jr,tkq1/;]:)ZIii7OeP:'tn8qn%JJ04
     A10c3KV  C2019 02 06BQG\Z[_I$PyD'mKEg@^]kQpB5AwL+?#RU^g;alk`6rS;rt50W'(/J04
     A10c3KV  C2019 02 07mQwJ^SbKHJq90af#8llHJMP3%:FsmxJq\WZa%*Ysn@_fwwYDy]q)J04
     A10c3KV  C2019 02 077w\bor?OYyYlr'gWnd.Mba0ZjZdsx;W689Ra1K6EJI7BQ$SyC;L+J04
     A10c3KV  C2019 02 07@yw87kDSVpi!@mm=xqpw:fIh9?[cIU?RXnwVGTLj/G]d[N4XB[BCJ04
     A10c3KV  C2019 02 07Wh?i\=y]KLMZM177Fe%%-Z:*#il5Z1HkSg4i*4L/`Tj3e[$eF]D-474
     A10c3KV  C2019 02 07/bI1TyhF]Lm7OEr-1rkUYbnq7v._W294e[ZH^`og,*fX7Q*(-dEU474
     A10c3KV  C2019 02 07!n*5YeI\#/Q$P8b=JyHU\Us'e.==+y.,Hlu[WDq5.#m^;UUeT$tj474
     A10c3KV  C2019 02 07oaB#GjoC%'AQpOTchoC4L!c=i0hg@W7[Sn(w%EGSov-XdVvbEc.?474
     A10c3KV KC2019 02 071sLYIw[%v(3k%@ICQy+vI*uU]);0nh\Nj_KeH.x9gr=1#pyrs]nOK88
     A10c3KV  C2019 02 07CR!hlLnWN/hD[+U_!%^NyBBN\'`7w34*hvop-CM1qwp\L+A^=vfyJ04
     A10c3KV  C2019 02 07_][5RQBuX^a)51cL]IG]-dYt=7!-F;e_xFt*RdTAnCRWo6MhZ-bwJ04
     A10c3KV  C2019 02 07)1p#;sug'[$Ilt_Mj2;KsWHqta;R1x=[U38N.%/%:4N,b33,yNWMJ04
     A10c3KV KC2019 02 07f,l)AHYv%^`*RN29jyLvxUclickTK:hJtc`o0CjX`J/?bI#;w5TgK88
     A10c3KV KC2019 02 088P9J40KDSpWmt@f\iiQf$_-8@$%UPq+ig/F!sKy'uVtov;,?*]_cI47
     A10c3KV KC2019 02 08L!+2DLAj';p'Bk7p;heG-p^m3[9hRd#%ebk0ifTp'$w#p5N1Wm2dI47
     A10c3KV  C2019 02 08.18946 08 38 56.55 -22 57 09.5    ~2873 18.4 GVNEOCPI52
     A10c3KV  C2019 02 08.20043 08 38 56.37 -22 57 07.6    ~2873 19.1 GVNEOCPI52
     A10c3KV  C2019 02 08.25712 08 38 55.25 -22 56 59.7    ~2873 19.3 GVNEOCPI52
     A10c3KV KC2019 02 08?*ivcU^T?MAsxxuZHdb3AUE`s;q#GvB,frou1$:8yg6U?25APQTLH36
     A10c3KV KC2019 02 087p44T,LO=PCVOdl**XtKc%Z5f3U6l8-Zc425=P?:`n%RS/e'4N,nH36
     A10c3KV  C2019 02 08.27102 08 38 54.97 -22 56 58.6    ~2873 18.6 GVNEOCPI52
     A10c3KV KC2019 02 08d?YEyw322QRkJ.-Ys4H!uHRjO%UI8TH5A4HLPTrRTBaV4P$6%tT'H36
     A10c3KV KC2019 02 08Db\4)q60Gj(TxJ;nOE*e$%t,,s=lMwji3$L*:\,^d`75!+o**J/Y595
     A10c3KV KC2019 02 08D/!gBZ9'Nv3g`sXON=EXHy\1XZwwlbuUcbQwXLRE98qhF4g%6f;!595
     A10c3KV KC2019 02 08]I\14xgl$?8=20hTWA6m-QH+M*G1=Jn=[(o#Nsvfj.QXb.5)x\j)L01
     A10c3KV KC2019 02 08r(nj=P_t$3qEWYv6B^%%\aJeEEvZ!T4s6(c.X#(\jy'GYW]U;4QW595
     A10c3KV KC2019 02 08_K2lSveS)!C\)jo:(JVD9-Vw$Y5Lpt(A-tN]u9jX:3:wW08_4H^ML01
     A10c3KV  C2019 02 08:wiBPpFgk_WISj+!(C;kSDGIht=\q`$i6u5#@N4D[XfZDcu`.N*/C95
     A10c3KV KC2019 02 08telcVAR3bH`aZ(:Fki`qEcFRno1(iQO,ap^t2vrWNbKtS;5-fZJ3C95
     A10c3KV KC2019 02 09OP26!Kd3ia`Irh1w=?8RLY2wlxp(vq.%uo#FZjiu*9Gs$hereD6CE23
     A10c3KV KC2019 02 09R=DOhS.j($G(88q3vd4oiX_2oM\?'][ZTcC3K3oO[wAMH.I3B?VUE23
     A10c3KV 1C2019 02 09g%!q_:Lj'usr;iu#m.Ff!D`%PsIr6)MaBlUI6\D/S=$Bl(5(!r)FQ62
     A10c3KV KC2019 02 09BoP]kv8:2N_u'VT$H6mIN!o`=yl)VhR,KD(=^nlwiM-CQ/3EeQH9E23
     A10c3KV 1C2019 02 09-[`2`*n$BJt,w'))7=(VHPp/Gp3q@xwd8d3-Of'5=bsSj(0lX!YPQ62
     A10c3KV KC2019 02 09im(TZx;0By5^r68bUQ(0dXy;JbxnQFP+(jFBj6[bLM%jO4u1D`iCL27
     A10c3KV KC2019 02 09Fv)wq)s;?T#k'\60p1A;qd8'Xx[Ni[Ne;Wbfa6'D_rLAb\8sX-EBL27
     A10c3KV KC2019 02 09@BW`7h$O8+0]D(cfjyX=W?brhTJO7DqH*c6-gfELP\q2E7VEIsVBL27
     A10c3KV 9C2019 02 10./YJmB`/\V\-h\xD[Gr7C.n]fYt[eT_XvEY`3v\o)%+'#f(u$K)LG40
     A10c3KV 9C2019 02 10ORYbO$A5^.1uWncO#O1y-6\Yx,c+8l]qT2PO!4]fco4cX=A-NtodG40
     A10c3KV 9C2019 02 11H+L_W[L-dMun_q(OC6Nq+m(Z0E'jGfp,w+X^p`ZrTsi6OrjM.?DnG40
     A10c3KV  C2019 02 11.24363 08 37 59.69 -22 50 22.3    ~2B7I 18.4 GVNEOCPI52
     A10c3KV  C2019 02 11.25510 08 37 59.45 -22 50 20.3    ~2B7I 18.0 GVNEOCPI52
     A10c3KV  C2019 02 11.26547 08 37 59.26 -22 50 19.2    ~2B7I 17.9 GVNEOCPI52
     A10c3KV  C2019 02 11.28026 08 37 59.01 -22 50 16.9    ~2B7I 18.4 GVNEOCPI52
     A10c3KV "C2019 02 11@LOjYMvk1lQE_r-PH%@ug9?5%F=UKOx0@W]pHHTnZmfgC4FcgW]#G40
     A10c3KV "C2019 02 11vRepcH@fp\tg+)es))]J:t'Q#x1WNBD[DdG:Fu3cE(k(1(R%ZWY6G40
     A10c3KV "C2019 02 11[D3yF'EA:fora^2`fXBQ:NW=bhPxwuE4^ho]Un]7mX+.=rH]PDijG40
     A10c3KV KC2019 02 123?33-L!/1JlHq$S%A%'YUKwV;XxSF=AYJm4VE*G!UZZa[6f7jcm+E94
     A10c3KV KC2019 02 12!fM5F)5P+\Q17egrbl9R/`7+QP'm0(Y7r%t-/YC:k[%2-_5oQN!;E94
     A10c3KV KC2019 02 124S0GE\M?i6y3QDH0VUpk$!t%/q=):E=H/emll25(e3/$D@Y:1];+E94
     A10c3KV KC2019 02 12NNov]ZC)0?cuuv_@%3Z6KPvgbD!7B*elZ$,-4%pcTFHTAMBUm+nZE94
     A10c3KV KC2019 02 12I'T-XfnFEdye2.,:P;2CGZ#:LmSa3VBh\*Hx!mqeG\QUBE_]1(^k587
     A10c3KV KC2019 02 12@bVby:=G8o/]pEhKAhdYSlqy+Jq80*Ys:urT8sG0B0m806=QX'd1587
     A10c3KV  C2019 02 13qq2*Dp[C(Of8vXHfvTDWrV+.@IHit4t:ThOr1W!QpR0r,L==yMH-T08
     A10c3KV  C2019 02 13)*Hx^6M0+2SUc'6I.Sg-inN0KC@U'JX%bnRrJ7^$FA(9E6F2w'UkT08
     A10c3KV  C2019 02 13%/^^q,kDW(([)_V1R!!RgxYCi4b:gn@FW$_)0PMg2/oHY4'-YfEIT08
     A10c3KV  C2019 02 13v3a[q1C_xR;mUtN///ei)0l8q/4'l0nSldJW-cU9%InSwX,t'O#7T08
     A10c3KV KC2019 02 15B:8u`=ccMVBv%vM]83W@c51**N54rW(0-hf-+)JX:m.?i5V[Ig!fI47
     A10c3KV KC2019 02 15u4qWxXE?e*i=\K5%;E;3*i].PyH%gs\?Q[^pf;_)1v.GU#FpAYg%I47
     A10c3KV KC2019 02 15Yj/o0`QHVqexplanationcoukbv!fBqa8A%c/X@Ek1.aAnli$cSsI47

Station data:
(474) Mount John Observatory, Lake Tekapo  (S43.987388 E170.464960)  New
   Zealand.  Observers A. C. Gilmore, P. M. Kilmartin. Measurer P. M.
   Kilmartin. 1.0-m f/7.7 reflector + CCD.
(587) Sormano  (N45.882949 E9.229180)  Italy.  Observers F. Manca, A. Testa.
   Measurer F. Manca. 0.5-m + CCD.
(595) Farra d'Isonzo  (N45.915734 E13.525780)  Italy.  Observers L.
   Bittesini, F. Fabris, E. Pettarin, F. Piani. Measurer E. Pettarin. 0.30-m
   f/4.5 reflector + CCD.
(C95) SATINO Remote Observatory, Haute Provence  (N43.932042 E5.712390)
   France.
(E23) Arcadia  (S33.621199 E151.071190)  Australia/NSW.
(E94) Gisborne (Possum Observatory)  (S38.629922 E177.883310)  New Zealand.
(G40) Slooh.com Canary Islands Observatory  (N28.299720 W16.508260)  Canary
   Islands (Spain).  Observers G. Gašparović, Y. Chen. 0.43-m f/6.8 Corrected
   Dall-Kirkham + CCD.
(H36) Sandlot Observatory, Scranton  (N38.797693 W95.706400)  US/Kansas.
   Observer G. Hug. 0.56-m reflector + CCD.
(I47) Pierre Auger Observatory, Malargüe  (S35.495442 W69.449700)  Argentina.
(I52) Steward Observatory, Mt. Lemmon Station  (N32.442547 W110.788920)
   US/Arizona.  Observers B. M. Africano, E. J. Christensen, G. A. Farneth,
   D. C. Fuls, A. R. Gibbs, A. D. Grauer, H. Groeller, J. A. Johnson, R. A.
   Kowalski, S. M. Larson, G. J. Leonard, R. L. Seaman, F. C. Shelly. 1.0-m
   reflector + CCD.
(J04) ESA Optical Ground Station, Tenerife  (N28.300924 W16.511830)  Canary
   Islands (Spain).  Observer D. Abreu. Measurers M. Micheli, D. Koschny, E.
   Schwab, M. Busch, A. Knöfel. 1.0-m f/4.4 reflector + CCD.
(K88) GINOP-KHK, Piszkéstető  (N47.917622 E19.893600)  Hungary.  Observer K.
   Sárneczky. 0.60-m Schmidt + CCD.
(L01) Višnjan Observatory, Tičan  (N45.290900 E13.749300)  Croatia.
   Observers K. Korlević, E. Pettarin. Measurer E. Pettarin. 1.0-m f/2.9
   reflector + CCD.
(L27) 29PREMOTE Observatory, Dauban  (N43.999847 E5.647040)  France.
(Q62) iTelescope Observatory, Siding Spring  (S31.273289 E149.064420)
   Australia/NSW. 0.50-m f/6.8 astrograph + CCD + focal reducer, 0.70-m f/6.6
   astrograph + CCD.
(T05) ATLAS-HKO, Haleakala  (N20.707573 W156.257010)  US/Hawaii.  Observers
   L. Denneau, A. Heinze, H. Weiland, J. Tonry, H. Flewelling, A.
   Fitzsimmons, D. Young. Measurers L. Denneau, A. Heinze, J. Tonry. 0.5-m
   f/2.0 Schmidt + CCD.
(T08) ATLAS-MLO, Mauna Loa  (N19.535772 W155.576400)  US/Hawaii.

Orbital elements:  A10c3KV
   Perihelion 2020 May 7.772498 +/- 2.7 TT = 18:32:23 (JD 2458977.272498)
Epoch 2019 Feb 15.0 TT = JDT 2458529.5                        AutoNEOCP
M 359.99683983 +/- 0.009            (J2000 ecliptic)
n   0.00000705 +/- 1.11e-5          Peri.  319.47175 +/- 0.29
a2691.74677 +/- 6629                Node   212.38065 +/- 0.025
e   0.9975600 +/- 0.00306           Incl.   36.01376 +/- 0.0044
P 139653                   H  9.9   G  0.15   U  5.1  
q 6.56760440 +/- 0.0106    Q 5376.92593 +/- 1987
From 74 observations 2019 Jan. 14-Feb. 15; mean residual 0".43
Residuals in arcseconds: 
190114 T05  .68+  .00     190207 J04  .18+  .18-    190209 L27  .24+  .37-    
190114 T05  .23+  .44+    190207 K88  .01+  .96+    190210 G40  .30-  .04+    
190114 T05  .05-  .36-    190208 I47  .01-  .16+    190210 G40  .39+  .27+    
190114 T05  .27-  .01+    190208 I47  .90-  .09-    190211 G40  .36+  .04+    
190114 T05  .73+  .52-    190208 I52  .08+  .68-    190211 I52  .14+  .47-    
190114 T05  .07-  .06+    190208 I52  .51+  .12-    190211 I52  .18-  .10-    
190114 T05  .04+  .42-    190208 I52  .17+  .80+    190211 I52  .10-  .48-    
190114 T05  1.3-  .76+    190208 H36  .10-  .19+    190211 I52  .31+  .29-    
190205 T08  .77-  .31+    190208 H36  .09-  .30+    190211 G40  .15-  .04+    
190205 T08  .33+  .03-    190208 I52  .01+  .17+    190211 G40  .02+  .11+    
